EA1EI-13 Weather Reports


time (UTC)temp
F
wind
direction
speed
knots
gust
knots
rain 1hr
in
rain 24hr
in
rain mn
in
humidity
%
barometer
mb
20260510234005 50 203 0.0 0.0 0.00 0.41 0.41 83 1012.7
20260510233005 50 202 0.0 0.0 0.00 0.41 0.41 83 1012.7
20260510232005 50 212 0.0 0.0 0.00 0.43 0.41 82 1012.5
20260510230005 51 236 0.0 0.0 0.00 0.43 0.41 81 1012.4
20260510224005 51 192 0.0 0.0 0.00 0.44 0.41 80 1012.4
20260510223005 52 215 0.0 0.0 0.00 0.44 0.41 79 1012.2
20260510222005 52 221 0.0 0.0 0.00 0.46 0.41 80 1012.2
20260510221004 52 201 0.0 0.0 0.00 0.46 0.41 79 1012.1
20260510220004 52 201 0.0 0.0 0.00 0.46 0.41 79 1012.0
20260510214004 52 218 0.0 0.0 0.00 0.46 0.41 79 1012.0
20260510213005 53 218 0.0 0.0 0.00 0.46 0.41 78 1011.9
20260510212005 53 219 0.0 0.0 0.00 0.46 0.41 78 1011.7
20260510205004 54 242 0.0 0.0 0.00 0.49 0.41 75 1011.5
20260510204004 55 247 0.0 0.0 0.00 0.54 0.41 74 1011.5
20260510203004 55 220 0.0 0.0 0.00 0.54 0.41 74 1011.3
20260510200004 56 243 0.0 0.0 0.00 0.54 0.41 71 1010.9
20260510195004 57 248 0.0 0.0 0.00 0.54 0.41 69 1010.7
20260510194004 57 256 0.0 0.0 0.00 0.54 0.41 67 1010.6
20260510193005 58 254 0.0 0.0 0.00 0.54 0.41 68 1010.5
20260510192005 58 254 0.0 0.0 0.00 0.54 0.41 67 1010.5
20260510191004 58 248 0.0 0.9 0.00 0.54 0.41 66 1010.5
20260510190005 59 255 0.0 2.6 0.00 0.54 0.41 65 1010.4
20260510185004 59 254 0.0 0.9 0.00 0.54 0.41 65 1010.2
20260510183004 60 290 0.0 0.0 0.00 0.54 0.41 60 1010.0
20260510182004 60 328 0.0 0.0 0.00 0.54 0.41 61 1010.0
20260510181004 60 271 0.0 0.0 0.00 0.54 0.41 61 1009.8
20260510180005 60 288 0.0 0.9 0.00 0.54 0.41 62 1009.7
20260510175004 60 250 0.0 0.0 0.00 0.54 0.41 63 1009.6
20260510174005 60 326 0.0 0.0 0.00 0.54 0.41 63 1009.7
20260510173004 60 308 0.0 0.9 0.00 0.54 0.41 63 1009.6
20260510172004 60 225 0.0 0.9 0.00 0.54 0.41 62 1009.7
20260510171004 60 254 0.0 5.2 0.00 0.54 0.41 60 1009.7
20260510170005 62 266 0.0 0.9 0.00 0.54 0.41 58 1009.6
20260510163005 61 233 0.0 0.9 0.00 0.54 0.41 60 1009.7
20260510162005 61 309 0.0 0.9 0.00 0.54 0.41 63 1009.6
20260510161004 60 63 0.0 0.0 0.00 0.54 0.41 64 1009.6
20260510160004 60 5 0.0 0.9 0.00 0.54 0.41 66 1009.5
20260510155004 59 335 0.0 8.7 0.00 0.54 0.41 67 1009.6
20260510153005 58 209 0.0 6.1 0.02 0.54 0.41 69 1009.2
20260510151005 56 204 0.9 6.1 0.02 0.54 0.41 76 1009.5
20260510150004 56 212 0.9 2.6 0.02 0.54 0.41 77 1009.6
20260510145005 56 216 0.0 8.7 0.02 0.54 0.41 75 1009.6
20260510144004 59 180 0.0 0.9 0.00 0.52 0.39 64 1009.5
20260510143020 59 214 0.0 8.7 0.00 0.52 0.39 62 1009.5
20260510142004 59 220 1.7 10.4 0.00 0.52 0.39 63 1009.4
20260510141004 60 198 0.0 6.1 0.00 0.52 0.39 64 1009.5
20260510140053 60 265 0.0 0.9 0.00 0.52 0.39 66 1009.7
20260510135004 58 351 0.0 0.9 0.00 0.52 0.39 68 1009.7
20260510134004 57 240 0.0 1.7 0.00 0.52 0.39 69 1009.7
20260510133005 58 203 0.0 2.6 0.00 0.52 0.39 69 1009.8
20260510132004 58 195 0.0 0.0 0.00 0.52 0.39 71 1009.8
20260510131009 57 200 0.9 8.7 0.00 0.52 0.39 72 1009.9
20260510130005 56 222 0.0 7.8 0.00 0.52 0.39 74 1010.0
20260510125007 56 193 0.9 6.1 0.00 0.52 0.39 74 1010.2
20260510123007 56 169 0.0 4.3 0.00 0.52 0.39 76 1010.6
20260510120005 54 207 0.0 2.6 0.00 0.52 0.39 77 1010.8
20260510115004 54 214 0.0 2.6 0.00 0.52 0.39 79 1010.8
20260510114004 52 255 0.0 0.9 0.00 0.52 0.39 81 1011.1
20260510113005 53 197 0.0 0.0 0.00 0.52 0.39 81 1010.9
20260510111005 52 270 0.0 0.0 0.00 0.52 0.39 87 1011.1
20260510110005 50 256 0.0 0.0 0.01 0.52 0.39 86 1010.9
20260510105004 49 223 0.0 0.0 0.02 0.52 0.39 88 1010.9
20260510103005 48 251 0.0 0.9 0.07 0.52 0.39 88 1010.9
20260510102005 48 194 0.0 1.7 0.10 0.52 0.39 89 1011.3
20260510101005 48 257 0.0 4.3 0.19 0.52 0.39 91 1011.5
20260510100004 48 258 0.0 2.6 0.34 0.51 0.39 93 1011.5
20260510094004 48 183 0.0 0.9 0.35 0.48 0.35 92 1011.4
20260510093004 49 170 0.9 4.3 0.31 0.45 0.32 92 1011.2
20260510092004 49 282 0.0 0.9 0.28 0.42 0.29 90 1011.0
20260510091004 51 297 0.9 5.2 0.20 0.33 0.20 89 1010.8
20260510090004 52 241 0.0 0.0 0.04 0.17 0.05 89 1010.2
20260510085004 52 238 0.0 0.0 0.01 0.14 0.02 87 1010.1
20260510082005 53 192 0.0 0.9 0.01 0.13 0.01 82 1010.0
20260510081005 53 224 0.0 0.0 0.01 0.13 0.01 82 1009.9
20260510075004 53 142 0.0 0.0 0.01 0.13 0.01 84 1009.7
20260510074004 53 107 0.0 0.0 0.01 0.13 0.01 82 1009.7
20260510073004 53 197 0.0 0.0 0.00 0.13 0.00 81 1009.8
20260510072004 52 142 0.0 0.9 0.00 0.13 0.00 83 1009.8
20260510071004 52 133 0.0 0.0 0.00 0.13 0.00 84 1009.7
20260510070005 52 199 0.0 0.0 0.00 0.13 0.00 83 1009.9
20260510065004 51 202 0.0 0.0 0.00 0.13 0.00 84 1009.9
20260510064004 51 182 0.0 0.0 0.00 0.13 0.00 86 1009.7
20260510063004 50 161 0.0 0.0 0.00 0.13 0.00 88 1009.5
20260510062005 50 163 0.0 0.0 0.00 0.13 0.00 90 1009.6
20260510061004 49 211 0.0 0.0 0.00 0.13 0.00 90 1009.6
20260510060006 49 214 0.0 0.0 0.00 0.13 0.00 90 1009.9
20260510055004 49 219 0.0 0.0 0.00 0.13 0.00 90 1009.8
20260510053005 49 206 0.0 0.0 0.00 0.13 0.00 90 1009.7
20260510051004 49 198 0.0 0.0 0.00 0.13 0.00 90 1009.7
20260510050004 49 205 0.0 0.0 0.00 0.13 0.00 91 1009.8
20260510045005 49 205 0.0 0.0 0.00 0.13 0.00 91 1009.7
20260510044005 49 205 0.0 0.0 0.00 0.13 0.00 91 1009.8
20260510043005 49 207 0.0 0.0 0.00 0.13 0.00 91 1009.9
20260510042004 49 207 0.0 0.0 0.00 0.13 0.00 91 1009.9
20260510041005 49 207 0.0 0.0 0.00 0.13 0.00 91 1009.9
20260510035004 49 208 0.0 0.0 0.00 0.15 0.00 91 1010.1
20260510034005 49 208 0.0 0.0 0.00 0.15 0.00 91 1010.2
20260510033004 49 193 0.0 0.0 0.00 0.15 0.00 91 1010.3
20260510032004 49 218 0.0 0.0 0.00 0.15 0.00 91 1010.3
20260510030004 49 216 0.0 0.0 0.00 0.16 0.00 91 1010.3
20260510025005 49 206 0.0 0.0 0.00 0.16 0.00 91 1010.2
20260510024004 49 209 0.0 0.0 0.00 0.16 0.00 92 1010.3
20260510023004 49 168 0.0 0.0 0.00 0.16 0.00 92 1010.3
20260510022004 49 206 0.0 0.0 0.00 0.16 0.00 92 1010.3
20260510021004 49 212 0.0 0.0 0.00 0.16 0.00 92 1010.4
20260510020005 49 202 0.0 0.0 0.00 0.16 0.00 92 1010.3
20260510015004 49 198 0.0 0.0 0.00 0.16 0.00 92 1010.3
20260510014004 49 206 0.0 0.0 0.00 0.16 0.00 92 1010.3
20260510013004 49 213 0.0 0.0 0.00 0.16 0.00 93 1010.3
20260510012004 49 202 0.0 0.0 0.00 0.16 0.00 93 1010.4
20260510011004 49 195 0.0 0.0 0.00 0.16 0.00 93 1010.5
20260510010005 49 192 0.0 0.0 0.00 0.16 0.00 93 1010.6
20260510005004 49 205 0.0 0.0 0.00 0.16 0.00 93 1010.7
20260510003005 49 194 0.0 0.0 0.00 0.16 0.00 93 1010.7
20260510002005 50 190 0.0 0.0 0.02 0.16 0.00 93 1010.6
20260510000004 50 190 0.0 0.0 0.02 0.16 0.00 92 1010.7